User: anonymous   Login
Location: Asheville, NC
(35.6000°N, 82.5500°W)
Time: 03:23:05
(UTC-04:00)
Language:

FALCONSAT 3 - Orbit

View from above orbital plane
View from above orbital plane
View from above satellite
View from above satellite

Ground track
Ground track

The orbit data is extracted from the following two-line orbital elements,

1 30776U 07006E   18170.67774245 +.00001765 +00000-0 +53049-4 0  9999
2 30776 035.4351 250.8932 0002339 042.3512 317.7395 15.34550318624708
Epoch (UTC): 19 June 2018 16:15:56
Eccentricity: 0.0002339
inclination: 35.4351°
perigee height: 460 km
apogee height: 464 km
right ascension of ascending node: 250.8932°
argument of perigee: 42.3512°
revolutions per day: 15.34550318
mean anomaly at epoch: 317.7395°
orbit number at epoch: 62470

The dashed part of the orbit path shows where the satellite is in the earth's shadow,  

DLR